Location: Unspecified
(0.0000°N, 0.0000°E)
Time: 09:04:41
(UTC+00:00)

Vanguard 2 - Pass Details

Date: 24 October 2021
Orbit: 554 x 2936 km, 32.9° (Epoch: 06 December)

Event Time Altitude Azimuth Distance (km) Brightness Sun altitude
Rises 01:18:32 0° 274° (W) 6,542 - -63.8°
Reaches altitude 10° 01:25:33 10° 291° (WNW) 5,167 - -62.2°
Maximum altitude 01:33:51 17° 326° (NNW) 3,979 - -60.4°
Drops below altitude 10° 01:40:27 10° 4° (N) 3,946 - -58.8°
Sets 01:44:45 0° 24° (NNE) 4,486 - -57.9°
